Regional Weather Roundup
Issued by NWS Little Rock, AR

Home | Current Version | Previous Version | Graphics & Text | Print | Product List | Glossary On
Versions: 1 2 3 4 5 6 7 8 9 10 11 12 13 14 15 16 17 18 19 20 21 22 23 24 25 26 27 28 29 30 31 32 33 34 35 36 37 38 39 40 41 42 43 44 45 46 47 48 49 50
000
ASUS44 KLZK 241505
RWRLZK

WEATHER ROUNDUP FOR ARKANSAS
NATIONAL WEATHER SERVICE LITTLE ROCK AR
1000 AM CDT THU MAY 24 2018

NOTE: "FAIR" INDICATES FEW OR NO CLOUDS BELOW 12,000 FEET WITH NO
SIGNIFICANT WEATHER AND/OR OBSTRUCTIONS TO VISIBILITY.

ARZ001-003-010-029-241600-
NORTHWEST ARKANSAS

CITY           SKY/WX    TMP DP  RH WIND       PRES   REMARKS
FAYETTEVILLE   CLOUDY    76  67  73 S6        30.14S
FORT SMITH     SUNNY     77  70  79 E5        30.11S
HARRISON       MOSUNNY   72  67  84 SE8       30.16F
BENTONVILLE    MOSUNNY   76  66  71 SW6       30.15F
ROGERS         MOSUNNY   76  67  73 VRB5      30.15S
SILOAM SPGS    SUNNY     76  68  76 S6        30.14S
HIGHFILL       SUNNY     76  65  68 S6        30.14S
SPRINGDALE     PTSUNNY   75  68  78 SE5       30.15F
$$

ARZ004-005-016-241600-
NORTH CENTRAL ARKANSAS

CITY           SKY/WX    TMP DP  RH WIND       PRES   REMARKS
BATESVILLE     CLOUDY    74  70  87 CALM      30.14F
FLIPPIN        CLOUDY    72  69  90 CALM      30.15F
MTN HOME       CLOUDY    76  70  82 VRB5      30.14F
$$

ARZ040-041-241600-
WEST CENTRAL ARKANSAS

CITY           SKY/WX    TMP DP  RH WIND       PRES   REMARKS
MENA           MOSUNNY   79  73  83 CALM      30.14F
MOUNT IDA      SUNNY     76  71  85 CALM      30.11F
$$

ARZ009-017-025-026-028-241600-
NORTHEAST ARKANSAS

CITY           SKY/WX    TMP DP  RH WIND       PRES   REMARKS
CORNING        FAIR      79  70  73 NE6       30.13F
JONESBORO      FAIR      75  73  93 E9        30.12F
NEWPORT          N/A     77  71  82 CALM      30.13S
WALNUT RIDGE     N/A     76  71  85 NE7       30.13S
BLYTHEVILLE    FAIR      82  69  64 CALM      30.12F HX  85
$$

ARZ022-023-033-042-044-241600-
CENTRAL ARKANSAS

CITY           SKY/WX    TMP DP  RH WIND       PRES   REMARKS
LITTLE ROCK    CLOUDY    75  72  90 E3        30.13F
N LITTLE ROCK    N/A     73  72  95 E3        30.09F
JACKSONVILLE   PTSUNNY   77  71  82 E5        30.12F
CONWAY         CLOUDY    72  72 100 CALM      30.13F FOG
SEARCY         FAIR      80  71  74 CALM      30.14F
HOT SPRINGS    CLOUDY    77  69  76 CALM      30.13F
RUSSELLVILLE   MOSUNNY   74  70  87 VRB3      30.12F
CLINTON        FAIR      75  70  83 CALM      30.14F
$$

ARZ036-241600-
EAST ARKANSAS

CITY           SKY/WX    TMP DP  RH WIND       PRES   REMARKS
WEST MEMPHIS   FAIR      81  72  74 CALM      30.11F HX  85
$$

ARZ050-053-066-070-073-241600-
SOUTHWEST ARKANSAS

CITY           SKY/WX    TMP DP  RH WIND       PRES   REMARKS
ARKADELPHIA    FAIR      75  69  81 CALM      30.13F
CAMDEN         FAIR      79  66  65 CALM      30.12F
TEXARKANA      MOSUNNY   74  70  87 CALM      30.12S
EL DORADO      PTSUNNY   76  70  82 N3        30.13F
DE QUEEN       SUNNY     77  71  82 W3        30.10S
$$

ARZ056-057-069-241600-
SOUTHEAST ARKANSAS

CITY           SKY/WX    TMP DP  RH WIND       PRES   REMARKS
PINE BLUFF     CLOUDY    76  71  85 E6        30.13S HAZE
STUTTGART      FAIR      76  72  87 NE5       30.14F
MONTICELLO     FAIR      79  71  76 N5        30.12F

$$





USA.gov is the U.S. government's official web portal to all federal, state and local government web resources and services.